| time (UTC) | temp F | wind direction | speed MPH | gust MPH | rain 1hr in | rain 24hr in | rain mn in | humidity % | barometer mb |
| 20260509204608 | 77 | 307 | 3.0 | 7.0 | 0.00 | 0.00 | 0.00 | 36 | 1013.4 |
| 20260509201530 | 76 | 285 | 4.0 | 8.0 | 0.00 | 0.00 | 0.00 | 36 | 1013.9 |
| 20260509194604 | 74 | 351 | 3.0 | 7.0 | 0.00 | 0.00 | 0.00 | 37 | 1014.4 |
| 20260509193144 | 74 | 294 | 4.0 | 7.0 | 0.00 | 0.00 | 0.00 | 38 | 1014.6 |
| 20260509191603 | 72 | 289 | 2.0 | 5.0 | 0.00 | 0.00 | 0.00 | 42 | 1014.8 |
| 20260509190030 | 71 | 302 | 2.0 | 6.0 | 0.00 | 0.00 | 0.00 | 43 | 1015.2 |
| 20260509183107 | 70 | 319 | 2.0 | 5.0 | 0.00 | 0.00 | 0.00 | 47 | 1015.5 |
| 20260509181605 | 69 | 15 | 1.0 | 5.0 | 0.00 | 0.00 | 0.00 | 47 | 1015.5 |
| 20260509180028 | 69 | 311 | 2.0 | 6.0 | 0.00 | 0.00 | 0.00 | 52 | 1015.6 |
| 20260509174531 | 67 | 319 | 3.0 | 6.0 | 0.00 | 0.00 | 0.00 | 53 | 1015.7 |
| 20260509173030 | 66 | 325 | 2.0 | 6.0 | 0.00 | 0.00 | 0.00 | 55 | 1015.8 |
| 20260509171530 | 65 | 351 | 2.0 | 7.0 | 0.00 | 0.00 | 0.00 | 56 | 1016.0 |
| 20260509163031 | 62 | 5 | 1.0 | 6.0 | 0.00 | 0.00 | 0.00 | 60 | 1016.5 |
| 20260509161530 | 61 | 337 | 1.0 | 4.0 | 0.00 | 0.00 | 0.00 | 62 | 1016.7 |
| 20260509160031 | 60 | 337 | 2.0 | 4.0 | 0.00 | 0.00 | 0.00 | 65 | 1016.8 |
| 20260509153030 | 58 | 26 | 3.0 | 5.0 | 0.00 | 0.00 | 0.00 | 65 | 1016.7 |
| 20260509151534 | 58 | 23 | 2.0 | 5.0 | 0.00 | 0.00 | 0.00 | 66 | 1016.7 |
| 20260509150031 | 57 | 356 | 2.0 | 5.0 | 0.00 | 0.00 | 0.00 | 67 | 1016.8 |
| 20260509144532 | 55 | 13 | 3.0 | 5.0 | 0.00 | 0.00 | 0.00 | 68 | 1016.7 |
| 20260509140033 | 51 | 14 | 1.0 | 3.0 | 0.00 | 0.00 | 0.00 | 78 | 1016.5 |
| 20260509134528 | 49 | 76 | 2.0 | 4.0 | 0.00 | 0.00 | 0.00 | 80 | 1016.5 |
| 20260509133107 | 49 | 156 | 2.0 | 5.0 | 0.00 | 0.00 | 0.00 | 80 | 1016.2 |
| 20260509131531 | 49 | 195 | 1.0 | 3.0 | 0.00 | 0.00 | 0.00 | 81 | 1015.9 |
| 20260509130028 | 48 | 119 | 1.0 | 3.0 | 0.00 | 0.00 | 0.00 | 80 | 1015.9 |
| 20260509124541 | 49 | 66 | 0.0 | 3.0 | 0.00 | 0.00 | 0.00 | 78 | 1015.9 |
| 20260509121645 | 51 | 270 | 0.0 | 1.0 | 0.00 | 0.00 | 0.00 | 74 | 1015.9 |
| 20260509120030 | 51 | 119 | 1.0 | 5.0 | 0.00 | 0.00 | 0.00 | 73 | 1015.9 |
| 20260509114611 | 51 | 112 | 5.0 | 9.0 | 0.00 | 0.00 | 0.00 | 72 | 1015.9 |
| 20260509113029 | 52 | 110 | 4.0 | 9.0 | 0.00 | 0.00 | 0.00 | 70 | 1015.8 |
| 20260509111606 | 54 | 101 | 4.0 | 7.0 | 0.00 | 0.00 | 0.00 | 69 | 1015.7 |
| 20260509110031 | 54 | 112 | 3.0 | 4.0 | 0.00 | 0.00 | 0.00 | 69 | 1015.7 |
| 20260509104531 | 54 | 112 | 3.0 | 5.0 | 0.00 | 0.00 | 0.00 | 69 | 1015.6 |
| 20260509103032 | 54 | 99 | 4.0 | 7.0 | 0.00 | 0.00 | 0.00 | 71 | 1015.6 |
| 20260509100032 | 54 | 27 | 0.0 | 2.0 | 0.00 | 0.00 | 0.00 | 68 | 1015.7 |
| 20260509094530 | 55 | 277 | 0.0 | 2.0 | 0.00 | 0.00 | 0.00 | 67 | 1015.7 |
| 20260509093029 | 55 | 223 | 1.0 | 6.0 | 0.00 | 0.00 | 0.00 | 68 | 1015.7 |
| 20260509091532 | 55 | 232 | 1.0 | 6.0 | 0.00 | 0.00 | 0.00 | 68 | 1015.8 |
| 20260509090029 | 56 | 224 | 3.0 | 10.0 | 0.00 | 0.00 | 0.00 | 68 | 1016.0 |
| 20260509084603 | 56 | 91 | 2.0 | 4.0 | 0.00 | 0.00 | 0.00 | 67 | 1016.1 |
| 20260509083032 | 57 | 104 | 3.0 | 4.0 | 0.00 | 0.00 | 0.00 | 65 | 1016.2 |
| 20260509080107 | 58 | 36 | 2.0 | 6.0 | 0.00 | 0.00 | 0.00 | 62 | 1016.4 |
| 20260509074532 | 59 | 357 | 2.0 | 7.0 | 0.00 | 0.00 | 0.00 | 59 | 1016.2 |
| 20260509073031 | 59 | 262 | 6.0 | 14.0 | 0.00 | 0.00 | 0.00 | 60 | 1015.9 |
| 20260509071605 | 59 | 262 | 8.0 | 18.0 | 0.00 | 0.00 | 0.00 | 60 | 1016.0 |
| 20260509070032 | 60 | 256 | 8.0 | 14.0 | 0.00 | 0.00 | 0.00 | 60 | 1015.9 |
| 20260509064531 | 60 | 246 | 8.0 | 16.0 | 0.00 | 0.00 | 0.00 | 58 | 1015.8 |
| 20260509063029 | 60 | 246 | 9.0 | 18.0 | 0.00 | 0.00 | 0.00 | 58 | 1015.6 |
| 20260509061602 | 60 | 250 | 9.0 | 17.0 | 0.00 | 0.00 | 0.00 | 59 | 1015.5 |
| 20260509060107 | 60 | 247 | 11.0 | 24.0 | 0.00 | 0.00 | 0.00 | 58 | 1015.4 |
| 20260509054603 | 60 | 245 | 11.0 | 20.0 | 0.00 | 0.00 | 0.00 | 58 | 1015.3 |
| 20260509053031 | 60 | 242 | 11.0 | 21.0 | 0.00 | 0.00 | 0.00 | 58 | 1015.6 |
| 20260509051529 | 59 | 246 | 7.0 | 17.0 | 0.00 | 0.00 | 0.00 | 59 | 1015.9 |
| 20260509050029 | 59 | 257 | 5.0 | 11.0 | 0.00 | 0.00 | 0.00 | 60 | 1015.9 |
| 20260509044531 | 59 | 252 | 5.0 | 12.0 | 0.00 | 0.00 | 0.00 | 59 | 1015.8 |
| 20260509043031 | 60 | 257 | 4.0 | 12.0 | 0.00 | 0.00 | 0.00 | 57 | 1015.7 |
| 20260509041531 | 61 | 236 | 2.0 | 7.0 | 0.00 | 0.00 | 0.00 | 55 | 1015.6 |
| 20260509040028 | 61 | 247 | 1.0 | 6.0 | 0.00 | 0.00 | 0.00 | 54 | 1015.4 |
| 20260509034530 | 62 | 16 | 1.0 | 5.0 | 0.00 | 0.00 | 0.00 | 54 | 1015.1 |
| 20260509033104 | 63 | 297 | 3.0 | 9.0 | 0.00 | 0.00 | 0.00 | 52 | 1014.8 |
| 20260509031531 | 63 | 257 | 6.0 | 14.0 | 0.00 | 0.00 | 0.00 | 51 | 1014.4 |
| 20260509030031 | 64 | 257 | 8.0 | 19.0 | 0.00 | 0.00 | 0.00 | 50 | 1014.0 |
| 20260509024530 | 65 | 256 | 10.0 | 21.0 | 0.00 | 0.00 | 0.00 | 48 | 1013.8 |
| 20260509023033 | 66 | 254 | 11.0 | 21.0 | 0.00 | 0.00 | 0.00 | 47 | 1013.6 |
| 20260509021531 | 67 | 262 | 10.0 | 24.0 | 0.00 | 0.00 | 0.00 | 47 | 1013.7 |
| 20260509020029 | 67 | 271 | 9.0 | 16.0 | 0.00 | 0.00 | 0.00 | 46 | 1013.8 |
| 20260509014530 | 68 | 269 | 9.0 | 22.0 | 0.00 | 0.00 | 0.00 | 44 | 1013.7 |
| 20260509010107 | 69 | 266 | 13.0 | 26.0 | 0.00 | 0.00 | 0.00 | 41 | 1012.6 |
| 20260509003032 | 68 | 271 | 17.0 | 32.0 | 0.00 | 0.00 | 0.00 | 39 | 1012.5 |
| 20260509001530 | 68 | 273 | 17.0 | 31.0 | 0.00 | 0.00 | 0.00 | 38 | 1012.5 |
| 20260509000041 | 68 | 273 | 17.0 | 31.0 | 0.00 | 0.00 | 0.00 | 36 | 1012.7 |
| 20260508234531 | 68 | 273 | 15.0 | 25.0 | 0.00 | 0.00 | 0.00 | 35 | 1013.0 |
| 20260508233030 | 68 | 276 | 14.0 | 25.0 | 0.00 | 0.00 | 0.00 | 35 | 1013.0 |
| 20260508231532 | 68 | 276 | 14.0 | 24.0 | 0.00 | 0.00 | 0.00 | 37 | 1013.0 |
| 20260508230029 | 68 | 273 | 16.0 | 25.0 | 0.00 | 0.00 | 0.00 | 37 | 1012.9 |
| 20260508224537 | 68 | 271 | 16.0 | 30.0 | 0.00 | 0.00 | 0.00 | 37 | 1012.9 |
| 20260508223104 | 68 | 272 | 16.0 | 28.0 | 0.00 | 0.00 | 0.00 | 37 | 1012.7 |
| 20260508221531 | 68 | 272 | 16.0 | 27.0 | 0.00 | 0.00 | 0.00 | 37 | 1012.7 |
| 20260508214542 | 68 | 271 | 15.0 | 27.0 | 0.00 | 0.00 | 0.00 | 37 | 1012.9 |
| 20260508211530 | 67 | 281 | 13.0 | 26.0 | 0.00 | 0.00 | 0.00 | 38 | 1013.0 |
| 20260508210030 | 67 | 283 | 12.0 | 24.0 | 0.00 | 0.00 | 0.00 | 38 | 1013.0 |